Manhattan, KS

8:07 AM CST on December 07, 2019 (GMT -0600)
Manhattan Regional

Weather History for KMHK - October, 2019

Change the Weather History Date:

Friday, October 25, 2019

  Actual Average Record
Temperature  
Mean Temperature 42 °F 52 °F  
Max Temperature 55 °F 65 °F 88 °F (2014)
Min Temperature 27 °F 39 °F 25 °F (2005)
Degree Days  
Heating Degree Days 24 13  
Month to date heating degree days 258 239  
Since 1 July heating degree days 259 309  
Cooling Degree Days 0 0  
Month to date cooling degree days 15 21  
Year to date cooling degree days 1610 1358  
Moisture  
Dew Point 30 °F    
Average Humidity 69    
Maximum Humidity 92    
Minimum Humidity 35    
Precipitation  
Precipitation 0.00 in 0.07 in 1.24 in (2006)
Month to date precipitation 2.84 1.86  
Year to date precipitation 40.82 29.57  
Sea Level Pressure  
Sea Level Pressure 30.31 in    
Wind  
Wind Speed 2 mph ()    
Max Wind Speed 9 mph    
Max Gust Speed 14 mph    
Visibility 9.5 miles    
Events      
T = Trace of Precipitation, MM = Missing Value Source: Averaged Metar Reports

Daily Weather History Graph

Daily Weather History Graph

Search for Another Location

Airport or City:

Astronomy

Oct. 25, 2019 Rise Set
Actual Time 7:46 AM CDT 6:34 PM CDT
Civil Twilight 7:19 AM CDT 7:01 PM CDT
Nautical Twilight 6:47 AM CDT 7:33 PM CDT
Astronomical Twilight 6:16 AM CDT 8:04 PM CDT
Moon 4:32 AM CDT (10/25) 5:35 PM CDT (10/25)
Length of Visible Light 11h 42m
Length of Day
10h 47m
Waning Crescent, 9% of the Moon is Illuminated
Oct 25
Waning Crescent
Oct 27
New
Nov 4
First Quarter
Nov 12
Full
Nov 19
Last Quarter

Hourly Weather History & Observations

Time (CDT) Temp. Windchill Dew Point Humidity Pressure Visibility Wind Dir Wind Speed Gust Speed Precip Events Conditions
12:52 AM 39.9 °F 37.8 °F 33.1 °F 77% 30.40 in 10.0 mi NNW 3.5 mph - N/A   Clear
1:52 AM 37.9 °F 34.4 °F 32.0 °F 79% 30.39 in 10.0 mi NNW 4.6 mph - N/A   Clear
2:52 AM 33.1 °F - 30.0 °F 89% 30.41 in 10.0 mi Calm Calm - N/A   Partly Cloudy
3:52 AM 33.1 °F - 30.9 °F 92% 30.40 in 10.0 mi Calm Calm - N/A   Overcast
4:52 AM 30.9 °F - 28.0 °F 89% 30.41 in 10.0 mi Calm Calm - N/A   Clear
5:52 AM 30.9 °F - 28.0 °F 89% 30.41 in 10.0 mi Calm Calm - N/A   Clear
7:52 AM 27.0 °F - 25.0 °F 92% 30.42 in 10.0 mi Calm Calm - N/A   Clear
8:52 AM 34.0 °F - 30.9 °F 89% 30.42 in 10.0 mi Calm Calm - N/A   Clear
9:52 AM 39.9 °F - 35.1 °F 83% 30.42 in 10.0 mi Calm Calm - N/A   Clear
10:52 AM 46.9 °F - 33.1 °F 59% 30.40 in 10.0 mi ENE 4.6 mph - N/A   Clear
11:52 AM 50.0 °F - 28.9 °F 44% 30.38 in 10.0 mi NNE 3.5 mph - N/A   Clear
12:52 PM 52.0 °F - 30.0 °F 43% 30.35 in 10.0 mi Variable 3.5 mph - N/A   Clear
1:52 PM 53.1 °F - 28.9 °F 40% 30.31 in 10.0 mi Variable 3.5 mph - N/A   Clear
2:52 PM 55.0 °F - 28.0 °F 35% 30.27 in 10.0 mi East 5.8 mph - N/A   Clear
3:52 PM 55.0 °F - 28.0 °F 35% 30.25 in 10.0 mi Variable 4.6 mph - N/A   Clear
4:52 PM 55.0 °F - 28.0 °F 35% 30.23 in 10.0 mi Variable 4.6 mph - N/A   Clear
5:52 PM 54.0 °F - 30.0 °F 40% 30.21 in 10.0 mi Calm Calm - N/A   Clear
6:52 PM 45.0 °F - 30.9 °F 58% 30.21 in 5.0 mi Calm Calm - N/A   Haze
7:52 PM 39.0 °F - 30.9 °F 73% 30.21 in 10.0 mi Calm Calm - N/A   Clear
8:52 PM 36.0 °F - 30.0 °F 79% 30.20 in 10.0 mi Calm Calm - N/A   Clear
9:52 PM 34.0 °F - 30.0 °F 85% 30.19 in 10.0 mi Calm Calm - N/A   Clear
10:52 PM 33.1 °F - 30.0 °F 89% 30.17 in 10.0 mi Calm Calm - N/A   Clear
11:52 PM 32.0 °F - 28.9 °F 88% 30.15 in 4.0 mi Calm Calm - N/A   Clear